Date String (YYYY-MM-DD hh:mm:ss) UTC,Instrument flags,absolute air pressure of the measurement (hPa),sample flow rate (lpm),inlet stack bypass flow (lpm),air temperature of the measurement (°C),ambient temperature measured by the external sensor (°C),aerosol sample conditioner tube jacket temperature (°C),OPC LED temperature (°C),internal box temperature (°C),relative humidity of the measurement (%),span deviation,mass concentration of particles derived from Lorenz-Mie calculation of OPC scattering (μg/m³),mass concentration of particles derived from Lorenz-Mie calculation of OPC scattering (μg/m³),mass concentration of particles derived from Lorenz-Mie calculation of OPC scattering (μg/m³)
DateTimeUTC,F1_M11,P_M11,Q1_M11,Q2_M11,T1_M11,T2_M11,T3_M11,T4_M11,T5_M11,U1_M11,ZSPAN_M11,X2_M11,X0_M11,X1_M11
2023-09-19 15:00:00,SystemResetWarning,0828.9,5.01,000.00,028.4,027.3,000.0,036.7,030.2,19.8,0000.0,0001.91,0004.19,0001.45
2023-09-19 15:01:00,SystemResetWarning,0828.9,4.98,000.00,028.5,027.4,000.0,036.7,030.2,19.6,0000.0,0001.88,0003.76,0001.44
2023-09-19 15:02:00,SystemResetWarning,0828.9,4.99,000.00,028.5,027.3,000.0,036.7,030.2,19.3,0000.0,0001.86,0003.49,0001.44
2023-09-19 15:03:00,SystemResetWarning,0829.0,5.00,000.00,028.5,025.9,000.0,036.7,029.9,19.4,0000.0,0001.90,0003.56,0001.44
2023-09-19 15:04:00,SystemResetWarning,0829.0,5.00,000.00,028.4,025.0,000.0,036.7,029.7,19.8,0000.0,0001.92,0003.67,0001.45
2023-09-19 15:05:00,SystemResetWarning,0829.0,5.01,000.00,028.3,025.0,000.0,036.6,029.6,20.3,0000.0,0001.91,0003.64,0001.44
2023-09-19 15:06:00,SystemResetWarning,0829.0,5.01,000.00,028.2,025.3,000.0,036.6,029.5,20.4,0000.0,0001.91,0003.66,0001.44
2023-09-19 15:07:00,SystemResetWarning,0829.0,5.00,000.00,028.2,025.5,000.0,036.6,029.6,20.7,0000.0,0001.92,0003.67,0001.44
2023-09-19 15:08:00,SystemResetWarning,0828.9,5.00,000.00,028.2,025.8,000.0,036.6,029.6,21.0,0000.0,0001.91,0003.28,0001.45
2023-09-19 15:09:00,SystemResetWarning,0828.9,5.00,000.00,028.2,026.1,000.0,036.6,029.7,21.2,0000.0,0001.89,0003.19,0001.45
2023-09-19 15:10:00,SystemResetWarning,0829.0,5.00,000.00,028.2,026.3,000.0,036.6,029.8,20.9,0000.0,0001.89,0003.24,0001.44
2023-09-19 15:11:00,SystemResetWarning,0828.9,5.00,000.00,028.2,026.5,000.0,036.6,029.8,20.8,0000.0,0001.87,0003.10,0001.44
2023-09-19 15:12:00,SystemResetWarning,0828.9,4.99,000.00,028.2,026.7,000.0,036.6,029.9,20.8,0000.0,0001.92,0003.40,0001.45
2023-09-19 15:13:00,SystemResetWarning,0828.9,4.99,000.00,028.3,026.8,000.0,036.6,030.0,20.8,0000.0,0001.93,0003.45,0001.45
2023-09-19 15:14:00,SystemResetWarning,0828.9,5.00,000.00,028.3,026.9,000.0,036.6,030.0,21.0,0000.0,0001.90,0003.47,0001.45
2023-09-19 15:15:00,SystemResetWarning,0828.9,5.01,000.00,028.3,027.0,000.0,036.6,030.0,21.4,0000.0,0001.92,0003.53,0001.45
2023-09-19 15:16:00,SystemResetWarning,0828.9,5.01,000.00,028.3,027.1,000.0,036.6,030.1,21.3,0000.0,0001.91,0003.50,0001.46
2023-09-19 15:17:00,SystemResetWarning,0828.9,5.00,000.00,028.4,027.2,000.0,036.7,030.1,21.3,0000.0,0001.92,0003.64,0001.47
2023-09-19 15:18:00,SystemResetWarning,0828.9,5.00,000.00,028.4,027.2,000.0,036.7,030.1,21.0,0000.0,0001.92,0003.64,0001.47
2023-09-19 15:19:00,SystemResetWarning,0828.9,4.99,000.00,028.4,027.3,000.0,036.7,030.2,21.1,0000.0,0001.89,0003.60,0001.46
2023-09-19 15:20:00,SystemResetWarning,0828.9,4.99,000.00,028.5,027.3,000.0,036.7,030.2,20.9,0000.0,0001.87,0003.55,0001.45
2023-09-19 15:21:00,SystemResetWarning,0828.9,4.99,000.00,028.4,026.2,000.0,036.7,029.8,21.0,0000.0,0001.86,0003.39,0001.45
2023-09-19 15:22:00,SystemResetWarning,0828.9,5.00,000.00,028.3,024.4,000.0,036.6,029.3,21.1,0000.0,0001.91,0003.50,0001.46
2023-09-19 15:23:00,SystemResetWarning,0829.0,5.01,000.00,028.2,024.0,000.0,036.6,029.3,21.2,0000.0,0001.88,0003.34,0001.46
2023-09-19 15:24:00,SystemResetWarning,0829.0,5.01,000.00,028.1,024.2,000.0,036.5,029.3,21.7,0000.0,0001.93,0003.57,0001.46
2023-09-19 15:25:00,SystemResetWarning,0828.9,4.99,000.00,028.0,024.6,000.0,036.5,029.2,22.0,0000.0,0001.98,0003.61,0001.47
2023-09-19 15:26:00,SystemResetWarning,0828.9,5.00,000.00,027.9,025.0,000.0,036.5,029.2,21.8,0000.0,0002.00,0003.63,0001.48
2023-09-19 15:27:00,SystemResetWarning,0828.9,5.00,000.00,027.9,025.3,000.0,036.5,029.3,21.3,0000.0,0002.03,0003.86,0001.49
2023-09-19 15:28:00,SystemResetWarning,0829.0,5.01,000.00,027.9,025.6,000.0,036.4,029.4,21.1,0000.0,0002.06,0003.92,0001.48
2023-09-19 15:29:00,SystemResetWarning,0829.0,4.99,000.00,028.0,025.9,000.0,036.4,029.4,21.9,0000.0,0002.06,0003.91,0001.48
2023-09-19 15:30:00,SystemResetWarning,0829.0,5.00,000.00,028.0,026.1,000.0,036.4,029.5,21.7,0000.0,0002.07,0003.92,0001.48
2023-09-19 15:31:00,SystemResetWarning,0829.0,5.00,000.00,028.0,026.3,000.0,036.4,029.6,21.7,0000.0,0002.13,0004.07,0001.49
2023-09-19 15:32:00,SystemResetWarning,0828.9,5.00,000.00,028.0,026.5,000.0,036.4,029.6,21.6,0000.0,0002.15,0004.02,0001.49
2023-09-19 15:33:00,SystemResetWarning,0828.9,5.01,000.00,028.1,026.6,000.0,036.4,029.7,22.0,0000.0,0002.09,0003.84,0001.48
2023-09-19 15:34:00,SystemResetWarning,0828.9,5.00,000.00,028.1,026.7,000.0,036.4,029.8,21.9,0000.0,0002.09,0003.79,0001.48
2023-09-19 15:35:00,SystemResetWarning,0828.9,5.00,000.00,028.1,026.9,000.0,036.4,029.8,21.8,0000.0,0002.03,0004.20,0001.47
2023-09-19 15:36:00,SystemResetWarning,0828.9,5.01,000.00,028.1,026.9,000.0,036.5,029.9,21.7,0000.0,0002.04,0004.69,0001.46
2023-09-19 15:37:00,SystemResetWarning,0828.9,5.00,000.00,028.2,027.0,000.0,036.5,029.9,21.8,0000.0,0002.02,0004.64,0001.45
2023-09-19 15:38:00,SystemResetWarning,0828.9,5.00,000.00,028.2,027.1,000.0,036.5,029.9,21.6,0000.0,0002.06,0004.51,0001.44
2023-09-19 15:39:00,SystemResetWarning,0828.9,5.00,000.00,028.3,027.2,000.0,036.5,030.0,21.5,0000.0,0002.04,0004.35,0001.44
2023-09-19 15:40:00,SystemResetWarning,0828.9,5.00,000.00,028.3,027.2,000.0,036.6,030.0,21.3,0000.0,0002.02,0004.29,0001.44
2023-09-19 15:41:00,SystemResetWarning,0829.0,4.99,000.00,028.3,027.3,000.0,036.6,030.1,20.3,0000.0,0002.06,0004.36,0001.45
2023-09-19 15:42:00,SystemResetWarning,0829.0,5.01,000.00,028.4,027.3,000.0,036.6,030.1,20.3,0000.0,0002.04,0004.37,0001.44
2023-09-19 15:43:00,SystemResetWarning,0829.1,5.01,000.00,028.4,027.4,000.0,036.6,030.2,20.2,0000.0,0002.02,0004.33,0001.45
2023-09-19 15:44:00,SystemResetWarning,0829.0,5.00,000.00,028.4,027.4,000.0,036.6,030.2,20.5,0000.0,0002.06,0004.47,0001.46
2023-09-19 15:45:00,SystemResetWarning,0829.1,4.98,000.00,028.4,026.3,000.0,036.6,029.9,21.3,0000.0,0002.08,0005.34,0001.47
2023-09-19 15:46:00,SystemResetWarning,0828.9,5.00,000.00,028.3,024.6,000.0,036.6,029.4,20.5,0000.0,0002.07,0005.14,0001.48
2023-09-19 15:47:00,SystemResetWarning,0828.9,5.00,000.00,028.2,024.3,000.0,036.5,029.4,21.5,0000.0,0002.07,0004.53,0001.48
2023-09-19 15:48:00,SystemResetWarning,0829.0,5.01,000.00,028.1,024.5,000.0,036.5,029.3,21.3,0000.0,0002.09,0004.62,0001.48
2023-09-19 15:49:00,SystemResetWarning,0829.0,5.00,000.00,028.0,024.9,000.0,036.5,029.3,21.9,0000.0,0002.07,0004.61,0001.48
2023-09-19 15:50:00,SystemResetWarning,0829.0,5.00,000.00,028.0,025.2,000.0,036.5,029.4,22.1,0000.0,0002.09,0004.63,0001.48
2023-09-19 15:51:00,SystemResetWarning,0829.0,4.99,000.00,028.0,025.6,000.0,036.5,029.4,22.6,0000.0,0002.08,0004.59,0001.49
2023-09-19 15:52:00,SystemResetWarning,0829.1,5.00,000.00,028.0,025.9,000.0,036.5,029.5,22.7,0000.0,0002.03,0004.49,0001.49
2023-09-19 15:53:00,SystemResetWarning,0829.1,5.00,000.00,028.0,026.1,000.0,036.5,029.5,22.2,0000.0,0002.04,0004.49,0001.50
2023-09-19 15:54:00,SystemResetWarning,0829.1,5.01,000.00,028.0,026.3,000.0,036.5,029.6,22.8,0000.0,0002.08,0004.85,0001.50
2023-09-19 15:55:00,SystemResetWarning,0829.1,5.00,000.00,028.1,026.5,000.0,036.5,029.7,23.1,0000.0,0002.08,0005.09,0001.50
2023-09-19 15:56:00,SystemResetWarning,0829.1,5.00,000.00,028.1,026.7,000.0,036.5,029.7,22.7,0000.0,0002.07,0004.50,0001.49
2023-09-19 15:57:00,SystemResetWarning,0829.1,5.00,000.00,028.1,026.8,000.0,036.5,029.8,22.7,0000.0,0002.12,0004.26,0001.49
2023-09-19 15:58:00,SystemResetWarning,0829.1,4.99,000.00,028.2,026.9,000.0,036.5,029.8,22.8,0000.0,0002.12,0004.30,0001.50
2023-09-19 15:59:00,SystemResetWarning,0829.0,4.99,000.00,028.2,027.0,000.0,036.5,029.8,22.4,0000.0,0002.11,0004.19,0001.50
